TimeEST,TemperatureF,Dew PointF,Humidity,Sea Level PressureIn,VisibilityMPH,Wind Direction,Wind SpeedMPH,Gust SpeedMPH,PrecipitationIn,Events,Conditions,WindDirDegrees,DateUTC
12:53 AM,18.0,10.0,71,29.90,7.0,West,13.8,-,N/A,,Overcast,270,2013-02-01 05:53:00
1:53 AM,17.6,8.6,68,29.89,10.0,West,13.8,-,N/A,,Mostly Cloudy,270,2013-02-01 06:53:00
2:53 AM,17.1,8.1,68,29.95,10.0,WNW,13.8,-,N/A,,Overcast,290,2013-02-01 07:53:00
3:53 AM,17.1,8.1,68,29.97,10.0,WNW,13.8,-,N/A,,Overcast,290,2013-02-01 08:53:00
4:53 AM,16.0,8.1,71,29.99,10.0,West,16.1,-,N/A,,Scattered Clouds,280,2013-02-01 09:53:00
5:53 AM,16.0,7.0,68,30.03,10.0,West,16.1,24.2,N/A,,Clear,280,2013-02-01 10:53:00
6:53 AM,16.0,7.0,68,30.06,10.0,West,18.4,25.3,N/A,,Mostly Cloudy,280,2013-02-01 11:53:00
7:53 AM,16.0,7.0,68,30.09,10.0,West,17.3,-,N/A,,Overcast,270,2013-02-01 12:53:00
8:53 AM,17.1,8.1,68,30.13,10.0,West,15.0,21.9,N/A,,Mostly Cloudy,280,2013-02-01 13:53:00
9:53 AM,18.0,8.1,65,30.15,9.0,West,13.8,-,N/A,,Overcast,270,2013-02-01 14:53:00
10:53 AM,18.0,3.9,54,30.17,10.0,WNW,17.3,26.5,N/A,,Overcast,290,2013-02-01 15:53:00
11:53 AM,19.0,3.0,50,30.18,10.0,West,19.6,24.2,N/A,,Overcast,270,2013-02-01 16:53:00
12:53 PM,19.0,3.9,52,30.18,10.0,West,19.6,-,N/A,,Overcast,270,2013-02-01 17:53:00
2:53 PM,18.0,3.9,54,30.19,10.0,WSW,16.1,24.2,0.00,,Overcast,240,2013-02-01 19:53:00
3:53 PM,18.0,3.9,54,30.20,10.0,West,16.1,-,N/A,,Overcast,260,2013-02-01 20:53:00
4:53 PM,18.0,5.0,57,30.20,10.0,WSW,18.4,-,N/A,,Overcast,250,2013-02-01 21:53:00
5:53 PM,17.1,3.9,56,30.20,10.0,WSW,17.3,25.3,0.00,,Overcast,240,2013-02-01 22:53:00
6:53 PM,15.1,7.0,70,30.21,9.0,WSW,17.3,-,0.00,,Overcast,240,2013-02-01 23:53:00
7:53 PM,15.1,3.9,61,30.21,10.0,SW,13.8,-,N/A,,Overcast,230,2013-02-02 00:53:00
8:53 PM,15.1,7.0,70,30.20,6.0,SSW,17.3,21.9,0.00,Snow,Light Snow,200,2013-02-02 01:53:00
9:05 PM,14.0,6.8,73,30.16,4.0,SW,16.1,25.3,0.00,Snow,Light Snow,220,2013-02-02 02:05:00
9:22 PM,14.0,5.0,67,30.16,10.0,SW,18.4,21.9,0.00,,Overcast,220,2013-02-02 02:22:00
9:53 PM,12.9,3.9,67,30.19,10.0,SSW,11.5,24.2,0.00,,Overcast,210,2013-02-02 02:53:00
10:53 PM,12.9,3.9,67,30.19,9.0,SSW,12.7,21.9,0.00,,Overcast,210,2013-02-02 03:53:00